QPF
0.01 0.01 0.01 0.01 0.01 0.01 0.02 0.02 0.03 0.04 0.05 0.06 0.04 0.03 0.02 0.04 0.03 0.02 0.01 0.01 0.02 0.02 0.01 0.01 0.01 0.01 0.01 0.01 0.01 0.01 0.01 0.02 0.03 0.01 0.02 0.01 0.02 0.01 0.02 0.04 0.06 0.06 0.04
0.01 0.01 0.01 0.02 0.02 0.02 0.03 0.04 0.03 0.03 0.04 0.05 0.05 0.03 0.02 0.03 0.03 0.02 0.02 0.01 0.02 0.02 0.02 0.01 0.01 0.00 0.01 0.01 0.01 0.01 0.01 0.01 0.01 0.01 0.01 0.02 0.02 0.02 0.02 0.04 0.05 0.06 0.06
0.00 0.01 0.01 0.01 0.02 0.03 0.04 0.05 0.04 0.04 0.04 0.05 0.05 0.04 0.03 0.03 0.03 0.02 0.01 0.01 0.01 0.01 0.01 0.01 0.01 0.01 0.00 0.00 0.01 0.01 0.01 0.01 0.01 0.01 0.01 0.01 0.01 0.01 0.02 0.03 0.05 0.06 0.05
0.01 0.01 0.01 0.01 0.02 0.03 0.04 0.04 0.04 0.04 0.04 0.05 0.06 0.06 0.04 0.05 0.04 0.02 0.01 0.01 0.01 0.01 0.00 0.00 0.01 0.01 0.01 0.01 0.01 0.01 0.01 0.01 0.01 0.01 0.01 0.02 0.02 0.01 0.01 0.01 0.04 0.05 0.05
0.02 0.01 0.02 0.03 0.03 0.03 0.04 0.04 0.04 0.04 0.05 0.05 0.05 0.05 0.05 0.05 0.04 0.02 0.02 0.01 0.01 0.01 0.01 0.01 0.01 0.01 0.01 0.01 0.01 0.00 0.00 0.01 0.02 0.02 0.02 0.02 0.02 0.02 0.02 0.02 0.03 0.05 0.04
0.02 0.02 0.03 0.04 0.05 0.05 0.05 0.05 0.04 0.04 0.04 0.05 0.05 0.04 0.04 0.04 0.04 0.02 0.02 0.01 0.01 0.01 0.01 0.01 0.01 0.01 0.01 0.01 0.01 0.01 0.00 0.00 0.01 0.02 0.02 0.02 0.02 0.02 0.02 0.02 0.03 0.06 0.04
0.02 0.02 0.03 0.04 0.06 0.07 0.08 0.07 0.05 0.05 0.05 0.05 0.05 0.05 0.04 0.04 0.05 0.03 0.02 0.01 0.01 0.01 0.01 0.02 0.02 0.01 0.01 0.01 0.01 0.01 0.00 0.00 0.00 0.01 0.02 0.02 0.03 0.03 0.03 0.02 0.02 0.05 0.05
0.02 0.03 0.03 0.05 0.07 0.06 0.07 0.10 0.10 0.07 0.07 0.06 0.05 0.05 0.05 0.04 0.04 0.03 0.02 0.01 0.01 0.01 0.01 0.02 0.02 0.02 0.01 0.02 0.01 0.01 0.01 0.00 0.00 0.01 0.01 0.02 0.02 0.03 0.03 0.02 0.02 0.02 0.04
0.03 0.03 0.03 0.03 0.05 0.06 0.05 0.05 0.08 0.10 0.09 0.07 0.05 0.05 0.05 0.05 0.04 0.03 0.03 0.01 0.01 0.01 0.01 0.02 0.02 0.02 0.02 0.03 0.02 0.01 0.01 0.01 0.01 0.01 0.01 0.01 0.01 0.02 0.02 0.02 0.01 0.02 0.03
0.02 0.02 0.01 0.02 0.02 0.04 0.05 0.05 0.05 0.06 0.09 0.08 0.07 0.06 0.07 0.06 0.05 0.03 0.02 0.01 0.01 0.01 0.02 0.02 0.03 0.03 0.04 0.03 0.02 0.02 0.01 0.01 0.01 0.01 0.01 0.01 0.01 0.01 0.01 0.01 0.01 0.02 0.03
0.01 0.01 0.01 0.01 0.01 0.01 0.02 0.03 0.03 0.03 0.05 0.08 0.09 0.08 0.08 0.06 0.06 0.04 0.03 0.03 0.03 0.02 0.02 0.02 0.02 0.03 0.03 0.02 0.02 0.03 0.03 0.03 0.02 0.01 0.01 0.01 0.01 0.02 0.01 0.01 0.01 0.01 0.01
0.02 0.02 0.02 0.02 0.01 0.01 0.01 0.02 0.02 0.03 0.05 0.06 0.07 0.08 0.08 0.07 0.07 0.06 0.05 0.03 0.03 0.02 0.03 0.02 0.02 0.03 0.03 0.02 0.03 0.04 0.05 0.04 0.04 0.04 0.02 0.01 0.02 0.02 0.01 0.01 0.01 0.01 0.01
0.02 0.03 0.03 0.03 0.03 0.02 0.02 0.02 0.02 0.03 0.04 0.05 0.07 0.08 0.07 0.07 0.07 0.06 0.05 0.03 0.02 0.01 0.01 0.02 0.02 0.02 0.02 0.02 0.02 0.04 0.04 0.04 0.05 0.06 0.05 0.03 0.02 0.03 0.02 0.01 0.01 0.02 0.02
0.01 0.02 0.02 0.02 0.02 0.03 0.03 0.03 0.03 0.03 0.04 0.04 0.05 0.06 0.06 0.07 0.07 0.05 0.04 0.03 0.03 0.02 0.01 0.01 0.02 0.02 0.02 0.02 0.03 0.03 0.02 0.03 0.05 0.05 0.06 0.06 0.04 0.04 0.03 0.02 0.02 0.02 0.02
0.02 0.02 0.02 0.02 0.02 0.02 0.02 0.03 0.03 0.03 0.03 0.03 0.04 0.04 0.05 0.05 0.05 0.05 0.04 0.03 0.03 0.03 0.03 0.02 0.02 0.02 0.03 0.03 0.03 0.03 0.03 0.03 0.04 0.05 0.05 0.07 0.07 0.05 0.04 0.02 0.02 0.02 0.02
0.02 0.02 0.02 0.02 0.02 0.02 0.02 0.02 0.03 0.03 0.02 0.02 0.02 0.03 0.03 0.03 0.04 0.04 0.04 0.04 0.04 0.04 0.04 0.03 0.02 0.02 0.02 0.03 0.04 0.03 0.03 0.02 0.02 0.03 0.04 0.04 0.05 0.06 0.05 0.02 0.01 0.02 0.02
0.02 0.02 0.02 0.02 0.02 0.02 0.02 0.03 0.03 0.03 0.03 0.02 0.01 0.02 0.02 0.03 0.04 0.03 0.03 0.03 0.04 0.04 0.03 0.02 0.02 0.02 0.02 0.02 0.03 0.03 0.03 0.02 0.02 0.02 0.03 0.04 0.04 0.05 0.05 0.04 0.02 0.01 0.01
0.02 0.03 0.03 0.02 0.02 0.02 0.02 0.03 0.04 0.04 0.04 0.03 0.03 0.03 0.03 0.03 0.03 0.04 0.03 0.04 0.03 0.03 0.03 0.03 0.02 0.02 0.02 0.03 0.03 0.03 0.03 0.03 0.03 0.03 0.03 0.03 0.04 0.05 0.05 0.05 0.03 0.02 0.02
0.02 0.02 0.04 0.03 0.02 0.02 0.02 0.02 0.04 0.04 0.04 0.03 0.03 0.03 0.04 0.04 0.04 0.04 0.04 0.04 0.04 0.03 0.03 0.03 0.03 0.02 0.02 0.02 0.03 0.03 0.03 0.04 0.04 0.04 0.04 0.04 0.03 0.03 0.04 0.05 0.04 0.04 0.03
0.01 0.02 0.03 0.03 0.04 0.04 0.03 0.03 0.03 0.04 0.04 0.04 0.04 0.03 0.03 0.04 0.04 0.05 0.05 0.04 0.04 0.03 0.03 0.03 0.03 0.03 0.02 0.03 0.03 0.03 0.03 0.03 0.04 0.04 0.03 0.03 0.03 0.03 0.03 0.04 0.05 0.05 0.04
0.01 0.01 0.01 0.02 0.03 0.05 0.05 0.04 0.04 0.04 0.04 0.04 0.04 0.05 0.04 0.04 0.05 0.05 0.05 0.05 0.04 0.04 0.04 0.04 0.03 0.03 0.03 0.03 0.03 0.03 0.03 0.03 0.03 0.03 0.03 0.03 0.03 0.03 0.03 0.03 0.04 0.05 0.05
0.01 0.01 0.01 0.02 0.04 0.05 0.05 0.04 0.04 0.04 0.05 0.05 0.04 0.04 0.04 0.04 0.04 0.04 0.04 0.04 0.04 0.04 0.04 0.04 0.04 0.04 0.04 0.03 0.03 0.03 0.03 0.03 0.03 0.04 0.03 0.03 0.04 0.03 0.03 0.03 0.03 0.04 0.04
0.01 0.02 0.02 0.03 0.04 0.06 0.05 0.04 0.03 0.03 0.04 0.04 0.05 0.04 0.03 0.03 0.03 0.03 0.03 0.03 0.03 0.03 0.04 0.04 0.03 0.03 0.03 0.03 0.03 0.03 0.03 0.03 0.03 0.04 0.04 0.03 0.03 0.03 0.03 0.03 0.03 0.04 0.05
0.03 0.03 0.03 0.03 0.04 0.04 0.04 0.03 0.02 0.02 0.02 0.03 0.04 0.04 0.04 0.04 0.04 0.04 0.03 0.03 0.03 0.03 0.03 0.03 0.02 0.02 0.02 0.02 0.02 0.02 0.02 0.02 0.03 0.03 0.03 0.03 0.03 0.03 0.03 0.03 0.03 0.04 0.04
0.05 0.03 0.02 0.02 0.02 0.02 0.03 0.03 0.03 0.03 0.03 0.03 0.03 0.04 0.04 0.03 0.03 0.03 0.04 0.03 0.03 0.03 0.02 0.01 0.01 0.01 0.01 0.01 0.01 0.01 0.01 0.01 0.01 0.02 0.02 0.03 0.03 0.03 0.03 0.03 0.03 0.04 0.04
0.05 0.03 0.02 0.01 0.02 0.02 0.03 0.03 0.03 0.03 0.03 0.03 0.03 0.03 0.03 0.02 0.02 0.03 0.04 0.03 0.03 0.02 0.02 0.01 0.01 0.01 0.01 0.01 0.01 0.01 0.00 0.00 0.01 0.01 0.01 0.02 0.03 0.03 0.03 0.03 0.04 0.04 0.04
MSLP
1025.62 1025.56 1025.53 1025.51 1025.50 1025.46 1025.39 1025.30 1025.18 1025.05 1024.93 1024.84 1024.78 1024.76 1024.78 1024.82 1024.87 1024.93 1024.97 1024.99 1024.99 1024.97 1024.95 1024.93 1024.92 1024.95 1025.02 1025.16 1025.36 1025.62 1025.95 1026.33 1026.75 1027.18 1027.59 1027.97 1028.29 1028.56 1028.75 1028.88 1028.97 1029.02 1029.06
1025.92 1025.82 1025.74 1025.67 1025.59 1025.49 1025.36 1025.21 1025.04 1024.87 1024.72 1024.61 1024.54 1024.51 1024.53 1024.57 1024.63 1024.70 1024.76 1024.80 1024.82 1024.82 1024.80 1024.79 1024.78 1024.80 1024.85 1024.96 1025.13 1025.38 1025.69 1026.07 1026.49 1026.94 1027.39 1027.81 1028.19 1028.50 1028.74 1028.93 1029.05 1029.14 1029.21
1026.35 1026.23 1026.12 1026.01 1025.87 1025.70 1025.50 1025.27 1025.03 1024.80 1024.59 1024.42 1024.31 1024.25 1024.23 1024.26 1024.31 1024.37 1024.43 1024.49 1024.53 1024.55 1024.57 1024.58 1024.59 1024.62 1024.69 1024.80 1024.96 1025.20 1025.50 1025.87 1026.29 1026.74 1027.20 1027.64 1028.04 1028.39 1028.66 1028.86 1029.01 1029.12 1029.20
1026.90 1026.78 1026.65 1026.51 1026.33 1026.10 1025.83 1025.52 1025.20 1024.89 1024.60 1024.36 1024.17 1024.04 1023.97 1023.95 1023.96 1024.00 1024.05 1024.10 1024.15 1024.20 1024.24 1024.29 1024.34 1024.40 1024.50 1024.62 1024.80 1025.04 1025.34 1025.69 1026.10 1026.54 1026.99 1027.42 1027.82 1028.17 1028.45 1028.66 1028.82 1028.93 1029.02
1027.53 1027.42 1027.30 1027.14 1026.93 1026.65 1026.32 1025.94 1025.54 1025.15 1024.77 1024.45 1024.18 1023.97 1023.83 1023.73 1023.68 1023.67 1023.68 1023.70 1023.74 1023.79 1023.86 1023.93 1024.01 1024.12 1024.24 1024.40 1024.59 1024.84 1025.13 1025.47 1025.85 1026.26 1026.69 1027.10 1027.48 1027.82 1028.09 1028.30 1028.46 1028.57 1028.65
1028.17 1028.09 1027.98 1027.82 1027.60 1027.29 1026.92 1026.49 1026.03 1025.57 1025.12 1024.72 1024.37 1024.08 1023.85 1023.67 1023.54 1023.45 1023.39 1023.36 1023.36 1023.39 1023.44 1023.52 1023.62 1023.75 1023.90 1024.08 1024.28 1024.53 1024.81 1025.13 1025.49 1025.87 1026.26 1026.65 1027.00 1027.32 1027.59 1027.80 1027.95 1028.06 1028.15
1028.77 1028.72 1028.63 1028.48 1028.25 1027.93 1027.54 1027.09 1026.60 1026.09 1025.61 1025.15 1024.74 1024.39 1024.08 1023.81 1023.59 1023.41 1023.26 1023.15 1023.07 1023.04 1023.05 1023.09 1023.18 1023.30 1023.45 1023.64 1023.85 1024.09 1024.36 1024.66 1024.99 1025.34 1025.70 1026.05 1026.40 1026.70 1026.97 1027.19 1027.35 1027.48 1027.57
1029.27 1029.24 1029.16 1029.02 1028.80 1028.49 1028.11 1027.66 1027.17 1026.67 1026.18 1025.71 1025.27 1024.87 1024.50 1024.16 1023.85 1023.57 1023.31 1023.09 1022.92 1022.79 1022.71 1022.69 1022.72 1022.81 1022.93 1023.10 1023.29 1023.52 1023.77 1024.05 1024.35 1024.67 1025.01 1025.35 1025.69 1026.00 1026.28 1026.52 1026.72 1026.87 1026.98
1029.64 1029.61 1029.55 1029.42 1029.21 1028.92 1028.57 1028.15 1027.70 1027.24 1026.77 1026.32 1025.89 1025.48 1025.08 1024.69 1024.30 1023.92 1023.56 1023.22 1022.91 1022.66 1022.47 1022.35 1022.30 1022.31 1022.37 1022.50 1022.65 1022.85 1023.07 1023.33 1023.61 1023.91 1024.24 1024.58 1024.92 1025.26 1025.57 1025.86 1026.10 1026.30 1026.45
1029.87 1029.84 1029.78 1029.66 1029.47 1029.21 1028.90 1028.54 1028.15 1027.75 1027.34 1026.95 1026.55 1026.16 1025.75 1025.33 1024.88 1024.42 1023.95 1023.49 1023.06 1022.68 1022.35 1022.11 1021.94 1021.85 1021.84 1021.89 1021.99 1022.15 1022.34 1022.56 1022.82 1023.10 1023.42 1023.77 1024.13 1024.50 1024.86 1025.20 1025.51 1025.76 1025.97
1029.98 1029.95 1029.88 1029.77 1029.60 1029.38 1029.11 1028.81 1028.50 1028.18 1027.85 1027.53 1027.19 1026.84 1026.45 1026.01 1025.54 1025.01 1024.46 1023.89 1023.34 1022.82 1022.36 1021.98 1021.69 1021.49 1021.38 1021.35 1021.38 1021.47 1021.61 1021.80 1022.03 1022.30 1022.60 1022.95 1023.33 1023.73 1024.14 1024.54 1024.91 1025.24 1025.51
1030.00 1029.96 1029.89 1029.79 1029.64 1029.45 1029.24 1029.00 1028.76 1028.52 1028.28 1028.03 1027.76 1027.45 1027.10 1026.68 1026.19 1025.63 1025.02 1024.37 1023.71 1023.09 1022.51 1022.01 1021.59 1021.28 1021.06 1020.93 1020.88 1020.90 1020.98 1021.11 1021.29 1021.52 1021.80 1022.13 1022.51 1022.93 1023.37 1023.81 1024.24 1024.64 1024.98
1029.94 1029.91 1029.85 1029.75 1029.63 1029.48 1029.31 1029.13 1028.96 1028.78 1028.61 1028.42 1028.22 1027.97 1027.65 1027.26 1026.77 1026.21 1025.57 1024.87 1024.16 1023.45 1022.78 1022.18 1021.66 1021.24 1020.92 1020.69 1020.55 1020.48 1020.48 1020.53 1020.64 1020.81 1021.03 1021.32 1021.66 1022.06 1022.50 1022.97 1023.44 1023.90 1024.31
1029.82 1029.81 1029.77 1029.70 1029.60 1029.48 1029.35 1029.21 1029.08 1028.96 1028.83 1028.70 1028.54 1028.33 1028.06 1027.71 1027.25 1026.71 1026.08 1025.38 1024.64 1023.90 1023.18 1022.52 1021.92 1021.42 1021.01 1020.69 1020.44 1020.27 1020.17 1020.12 1020.12 1020.18 1020.31 1020.51 1020.78 1021.11 1021.52 1021.97 1022.45 1022.94 1023.40
1029.64 1029.66 1029.65 1029.61 1029.54 1029.45 1029.35 1029.24 1029.14 1029.04 1028.94 1028.84 1028.72 1028.55 1028.32 1028.01 1027.61 1027.11 1026.52 1025.86 1025.15 1024.42 1023.70 1023.01 1022.38 1021.82 1021.34 1020.93 1020.59 1020.31 1020.08 1019.90 1019.77 1019.69 1019.68 1019.74 1019.89 1020.11 1020.43 1020.82 1021.27 1021.75 1022.25
1029.40 1029.47 1029.49 1029.49 1029.45 1029.38 1029.30 1029.20 1029.11 1029.02 1028.93 1028.85 1028.74 1028.60 1028.42 1028.16 1027.82 1027.40 1026.89 1026.31 1025.67 1025.00 1024.32 1023.66 1023.03 1022.44 1021.91 1021.43 1020.99 1020.60 1020.24 1019.92 1019.63 1019.39 1019.20 1019.09 1019.06 1019.13 1019.31 1019.58 1019.95 1020.39 1020.88
1029.11 1029.22 1029.28 1029.31 1029.29 1029.25 1029.17 1029.08 1028.99 1028.90 1028.81 1028.73 1028.64 1028.53 1028.38 1028.19 1027.93 1027.61 1027.20 1026.73 1026.20 1025.62 1025.02 1024.42 1023.82 1023.24 1022.69 1022.15 1021.64 1021.15 1020.66 1020.19 1019.74 1019.31 1018.93 1018.62 1018.39 1018.27 1018.26 1018.38 1018.62 1018.97 1019.40
1028.78 1028.92 1029.02 1029.07 1029.08 1029.04 1028.97 1028.88 1028.78 1028.68 1028.59 1028.50 1028.42 1028.34 1028.25 1028.12 1027.96 1027.74 1027.46 1027.12 1026.71 1026.26 1025.77 1025.26 1024.72 1024.18 1023.62 1023.06 1022.49 1021.91 1021.31 1020.71 1020.10 1019.49 1018.92 1018.40 1017.96 1017.63 1017.42 1017.34 1017.41 1017.62 1017.95
1028.46 1028.62 1028.73 1028.80 1028.81 1028.78 1028.71 1028.62 1028.51 1028.40 1028.30 1028.21 1028.14 1028.09 1028.04 1027.98 1027.91 1027.80 1027.65 1027.45 1027.19 1026.88 1026.51 1026.10 1025.65 1025.16 1024.63 1024.07 1023.47 1022.83 1022.15 1021.43 1020.69 1019.93 1019.19 1018.48 1017.84 1017.30 1016.87 1016.59 1016.46 1016.49 1016.66
1028.18 1028.34 1028.45 1028.52 1028.53 1028.50 1028.43 1028.32 1028.20 1028.08 1027.97 1027.88 1027.82 1027.79 1027.79 1027.79 1027.81 1027.81 1027.78 1027.71 1027.58 1027.40 1027.17 1026.86 1026.50 1026.08 1025.60 1025.06 1024.46 1023.80 1023.07 1022.29 1021.46 1020.59 1019.72 1018.86 1018.05 1017.31 1016.68 1016.19 1015.85 1015.66 1015.64
1027.99 1028.13 1028.22 1028.28 1028.28 1028.24 1028.15 1028.03 1027.90 1027.76 1027.64 1027.54 1027.48 1027.47 1027.50 1027.56 1027.64 1027.72 1027.79 1027.84 1027.84 1027.78 1027.66 1027.46 1027.20 1026.85 1026.44 1025.94 1025.37 1024.71 1023.98 1023.17 1022.30 1021.38 1020.43 1019.47 1018.53 1017.64 1016.84 1016.16 1015.61 1015.21 1014.97
1027.90 1028.01 1028.08 1028.11 1028.09 1028.03 1027.92 1027.78 1027.62 1027.46 1027.32 1027.21 1027.14 1027.13 1027.17 1027.26 1027.38 1027.53 1027.67 1027.80 1027.90 1027.94 1027.91 1027.82 1027.64 1027.38 1027.03 1026.60 1026.07 1025.46 1024.76 1023.98 1023.12 1022.19 1021.21 1020.20 1019.19 1018.21 1017.28 1016.44 1015.71 1015.10 1014.65
1027.91 1027.98 1028.02 1028.02 1027.98 1027.89 1027.75 1027.58 1027.39 1027.20 1027.02 1026.87 1026.78 1026.75 1026.78 1026.87 1027.01 1027.19 1027.38 1027.57 1027.73 1027.84 1027.90 1027.88 1027.78 1027.59 1027.32 1026.96 1026.50 1025.96 1025.32 1024.59 1023.78 1022.90 1021.95 1020.95 1019.92 1018.90 1017.89 1016.95 1016.08 1015.31 1014.66
1027.99 1028.03 1028.04 1028.01 1027.93 1027.80 1027.63 1027.42 1027.18 1026.94 1026.71 1026.52 1026.39 1026.32 1026.32 1026.39 1026.52 1026.71 1026.92 1027.14 1027.34 1027.50 1027.61 1027.66 1027.63 1027.51 1027.31 1027.02 1026.64 1026.17 1025.61 1024.97 1024.24 1023.42 1022.54 1021.59 1020.60 1019.58 1018.57 1017.57 1016.62 1015.73 1014.94
1028.08 1028.10 1028.08 1028.02 1027.90 1027.74 1027.52 1027.26 1026.97 1026.67 1026.39 1026.14 1025.95 1025.82 1025.78 1025.82 1025.94 1026.11 1026.32 1026.55 1026.77 1026.97 1027.13 1027.22 1027.24 1027.19 1027.05 1026.83 1026.52 1026.13 1025.66 1025.10 1024.46 1023.74 1022.94 1022.08 1021.15 1020.19 1019.20 1018.21 1017.24 1016.31 1015.43
1028.13 1028.14 1028.10 1028.01 1027.86 1027.65 1027.39 1027.07 1026.72 1026.37 1026.02 1025.71 1025.47 1025.29 1025.21 1025.21 1025.29 1025.45 1025.65 1025.89 1026.13 1026.35 1026.54 1026.67 1026.74 1026.73 1026.65 1026.49 1026.25 1025.93 1025.53 1025.06 1024.50 1023.87 1023.17 1022.40 1021.56 1020.68 1019.77 1018.83 1017.89 1016.97 1016.08
Thickness
5674 5673 5672 5672 5671 5671 5670 5670 5670 5670 5669 5668 5667 5667 5666 5664 5662 5660 5658 5657 5655 5653 5651 5649 5647 5647 5645 5643 5642 5641 5639 5636 5630 5630 5632 5632 5631 5630 5630 5629 5629 5628 5627
5670 5668 5667 5667 5666 5665 5664 5665 5665 5665 5665 5664 5663 5662 5661 5660 5658 5655 5653 5652 5649 5647 5645 5644 5642 5642 5640 5638 5636 5635 5634 5633 5628 5625 5625 5625 5625 5625 5624 5624 5624 5623 5622
5664 5663 5661 5661 5660 5660 5659 5660 5660 5659 5659 5659 5657 5655 5655 5654 5652 5650 5648 5647 5644 5642 5640 5639 5638 5636 5634 5633 5632 5630 5629 5628 5625 5622 5620 5620 5620 5620 5619 5618 5618 5618 5618
5659 5657 5655 5655 5654 5654 5654 5654 5654 5653 5653 5652 5651 5649 5648 5648 5646 5644 5643 5641 5639 5638 5636 5634 5633 5632 5630 5628 5627 5625 5623 5621 5619 5617 5615 5614 5613 5614 5613 5611 5611 5611 5612
5653 5651 5649 5649 5648 5647 5647 5647 5647 5647 5646 5646 5644 5643 5642 5641 5639 5638 5636 5635 5633 5632 5631 5630 5629 5629 5628 5625 5623 5620 5619 5615 5613 5610 5608 5608 5607 5606 5605 5606 5605 5605 5606
5646 5644 5643 5642 5641 5640 5639 5639 5639 5638 5638 5638 5637 5636 5635 5634 5633 5633 5631 5629 5628 5627 5626 5625 5625 5624 5622 5621 5619 5618 5616 5612 5608 5606 5604 5603 5602 5602 5601 5601 5599 5598 5598
5640 5638 5637 5635 5634 5633 5632 5631 5630 5630 5630 5630 5629 5629 5628 5628 5628 5627 5626 5624 5623 5622 5621 5620 5620 5619 5617 5615 5613 5612 5611 5610 5608 5605 5602 5601 5600 5599 5597 5596 5595 5594 5594
5633 5631 5630 5628 5626 5626 5624 5623 5622 5623 5623 5622 5622 5622 5621 5620 5621 5621 5620 5619 5618 5617 5616 5615 5614 5612 5611 5609 5607 5605 5604 5604 5603 5602 5601 5600 5599 5597 5595 5593 5592 5591 5592
5627 5625 5624 5623 5621 5619 5617 5616 5616 5616 5615 5615 5615 5615 5614 5614 5614 5614 5613 5612 5611 5611 5611 5610 5609 5606 5606 5605 5602 5599 5598 5597 5598 5598 5597 5596 5595 5594 5592 5589 5587 5585 5585
5621 5620 5619 5618 5615 5613 5612 5610 5610 5609 5609 5608 5608 5608 5608 5607 5606 5606 5606 5605 5604 5604 5604 5604 5603 5601 5600 5598 5596 5593 5591 5591 5592 5591 5591 5590 5590 5589 5588 5586 5585 5582 5581
5616 5615 5613 5612 5610 5608 5606 5605 5603 5602 5601 5601 5601 5601 5601 5600 5599 5598 5598 5597 5597 5596 5596 5596 5595 5595 5593 5592 5591 5589 5588 5587 5586 5585 5584 5584 5584 5583 5583 5582 5582 5580 5577
5610 5608 5606 5605 5604 5603 5600 5598 5597 5595 5593 5592 5592 5592 5592 5592 5592 5591 5590 5590 5590 5589 5588 5589 5588 5587 5586 5585 5585 5585 5584 5582 5580 5578 5577 5576 5576 5576 5577 5577 5576 5576 5576
5602 5600 5599 5598 5597 5595 5593 5591 5589 5588 5586 5585 5584 5584 5584 5584 5584 5584 5583 5582 5582 5581 5581 5581 5581 5580 5579 5579 5578 5578 5577 5574 5573 5571 5570 5570 5571 5571 5571 5571 5571 5570 5570
5593 5592 5591 5589 5588 5586 5585 5584 5582 5580 5578 5577 5577 5577 5577 5576 5575 5575 5574 5573 5573 5573 5573 5573 5573 5573 5572 5571 5571 5570 5569 5568 5566 5565 5564 5564 5565 5564 5564 5564 5563 5563 5562
5584 5583 5582 5580 5578 5577 5576 5575 5574 5573 5571 5570 5569 5569 5568 5567 5568 5568 5566 5566 5565 5565 5564 5562 5561 5562 5562 5561 5561 5561 5561 5560 5559 5558 5557 5557 5557 5557 5557 5557 5557 5556 5555
5576 5574 5572 5571 5569 5568 5566 5564 5565 5565 5564 5564 5563 5561 5561 5561 5561 5560 5559 5558 5557 5556 5554 5553 5552 5552 5552 5552 5552 5552 5552 5551 5551 5550 5550 5549 5549 5549 5549 5549 5550 5549 5548
5566 5564 5562 5561 5559 5558 5557 5555 5554 5554 5554 5554 5554 5553 5553 5552 5552 5550 5550 5549 5548 5547 5544 5544 5544 5544 5544 5544 5544 5544 5544 5544 5543 5543 5542 5542 5542 5542 5542 5542 5542 5541 5541
5557 5555 5552 5551 5550 5549 5548 5548 5547 5547 5546 5545 5545 5545 5544 5544 5543 5541 5540 5538 5537 5537 5537 5536 5536 5536 5536 5536 5535 5535 5535 5535 5535 5534 5534 5534 5534 5534 5534 5534 5534 5533 5533
5547 5544 5543 5542 5541 5541 5540 5539 5539 5539 5538 5538 5537 5536 5536 5535 5534 5532 5530 5529 5530 5530 5529 5529 5529 5529 5529 5528 5528 5527 5527 5526 5526 5526 5525 5525 5525 5525 5525 5525 5525 5525 5525
5537 5536 5535 5533 5532 5532 5531 5531 5530 5529 5529 5528 5528 5528 5527 5525 5524 5523 5522 5521 5522 5522 5521 5521 5521 5521 5521 5521 5520 5519 5518 5518 5517 5517 5517 5516 5516 5516 5517 5517 5517 5516 5516
5527 5526 5525 5524 5523 5523 5522 5522 5521 5520 5520 5520 5520 5520 5520 5518 5518 5517 5516 5514 5514 5514 5514 5513 5513 5513 5512 5512 5511 5511 5510 5509 5509 5508 5508 5508 5507 5507 5508 5508 5508 5508 5508
5517 5516 5516 5515 5514 5514 5513 5513 5513 5512 5511 5511 5511 5511 5511 5510 5509 5508 5508 5507 5507 5507 5507 5506 5505 5505 5504 5504 5503 5502 5501 5500 5499 5499 5498 5498 5498 5498 5498 5499 5499 5499 5499
5507 5507 5507 5506 5506 5505 5503 5503 5502 5502 5502 5502 5502 5502 5501 5501 5500 5500 5501 5500 5500 5499 5499 5498 5498 5497 5496 5496 5495 5494 5493 5492 5491 5490 5489 5489 5489 5489 5490 5490 5490 5490 5490
5497 5497 5496 5496 5495 5495 5494 5494 5494 5494 5493 5494 5494 5493 5493 5493 5493 5492 5492 5491 5491 5491 5490 5490 5489 5489 5488 5487 5486 5485 5484 5483 5482 5481 5480 5480 5480 5480 5480 5480 5481 5481 5481
5487 5487 5486 5486 5485 5485 5484 5484 5484 5484 5484 5485 5485 5485 5484 5484 5483 5483 5482 5482 5482 5482 5481 5480 5479 5479 5478 5477 5476 5476 5475 5474 5472 5472 5471 5471 5471 5471 5471 5471 5471 5471 5471
5476 5477 5476 5476 5475 5475 5474 5474 5474 5474 5474 5475 5475 5475 5474 5474 5473 5473 5473 5472 5472 5471 5471 5470 5470 5470 5469 5468 5467 5466 5465 5465 5463 5463 5462 5461 5461 5461 5461 5461 5461 5461 5462